When you browse on this site, cookies collect data to enhance your experience and personalize the content and advertising you see.
Visit our Privacy Policy to learn more. By continuing to use the site, you agree to this use of cookies and data.
  • In Germany
  • List of Countries
  • For 7 days
  • Water Temperature
  • Satellite Maps
  • Weather Map
  • Weather Widgets
  • user-avatar
    Login

    Hourly Weather Uakit

    Today, 22 January, Tuesday

    Time Temperature Precipitation Wind Pressure Humidity
    00:00 -22°C° 0 mm 3 mps 656 mmHg 84%
    01:00 -23°C° 0 mm 3 mps 656 mmHg 84%
    02:00 -24°C° 0 mm 2 mps 656 mmHg 84%
    03:00 -24°C° 0 mm 2 mps 657 mmHg 83%
    04:00 -25°C° 0 mm 2 mps 657 mmHg 82%
    05:00 -25°C° 0 mm 2 mps 657 mmHg 81%
    06:00 -25°C° 0 mm 2 mps 658 mmHg 80%
    07:00 -26°C° 0 mm 2 mps 658 mmHg 79%
    08:00 -26°C° 0 mm 2 mps 659 mmHg 78%
    09:00 -25°C° 0 mm 2 mps 659 mmHg 78%
    10:00 -23°C° 0 mm 2 mps 659 mmHg 78%
    11:00 -21°C° 0 mm 2 mps 660 mmHg 79%
    12:00 -20°C° 0 mm 2 mps 660 mmHg 78%
    13:00 -19°C° 0 mm 2 mps 661 mmHg 77%
    14:00 -18°C° 0 mm 2 mps 661 mmHg 76%
    15:00 -20°C° 0 mm 2 mps 661 mmHg 78%
    16:00 -23°C° 0 mm 2 mps 661 mmHg 79%
    17:00 -25°C° 0 mm 2 mps 661 mmHg 80%
    18:00 -26°C° 0 mm 2 mps 661 mmHg 79%
    19:00 -26°C° 0 mm 2 mps 662 mmHg 77%
    20:00 -27°C° 0 mm 2 mps 662 mmHg 76%
    21:00 -24°C° 0 mm 1 mps 662 mmHg 75%
    22:00 -25°C° 0 mm 1 mps 662 mmHg 74%
    23:00 -25°C° 0 mm 1 mps 662 mmHg 73%

    Tomorrow, 23 January, Wednesday

    Time Temperature Precipitation Wind Pressure Humidity
    00:00 -25°C° 0 mm 1 mps 662 mmHg 71%
    01:00 -25°C° 0 mm 1 mps 662 mmHg 70%
    02:00 -25°C° 0 mm 1 mps 662 mmHg 68%
    03:00 -25°C° 0 mm 1 mps 662 mmHg 67%
    04:00 -25°C° 0 mm 1 mps 662 mmHg 65%
    05:00 -24°C° 0 mm 1 mps 662 mmHg 64%
    06:00 -24°C° 0 mm 0 mps 663 mmHg 63%
    07:00 -23°C° 0 mm 0 mps 663 mmHg 62%
    08:00 -23°C° 0 mm 0 mps 663 mmHg 61%
    09:00 -21°C° 0 mm 0 mps 664 mmHg 62%
    10:00 -20°C° 0 mm 0 mps 664 mmHg 63%
    11:00 -18°C° 0 mm 0 mps 665 mmHg 64%
    12:00 -17°C° 0 mm 0 mps 665 mmHg 65%
    13:00 -16°C° 0 mm 1 mps 665 mmHg 66%
    14:00 -15°C° 0 mm 1 mps 665 mmHg 68%
    15:00 -16°C° 0 mm 1 mps 665 mmHg 71%
    16:00 -18°C° 0 mm 1 mps 665 mmHg 75%
    17:00 -19°C° 0 mm 1 mps 665 mmHg 78%
    18:00 -19°C° 0 mm 1 mps 666 mmHg 80%
    19:00 -21°C° 0 mm 2 mps 666 mmHg 81%
    20:00 -21°C° 0 mm 2 mps 666 mmHg 82%
    21:00 -21°C° 0 mm 2 mps 667 mmHg 83%
    22:00 -21°C° 0 mm 2 mps 667 mmHg 83%
    23:00 -21°C° 0 mm 2 mps 667 mmHg 84%

    Day after tomorrow, 24 January, Thursday

    Time Temperature Precipitation Wind Pressure Humidity
    00:00 -21°C° 0 mm 2 mps 668 mmHg 84%
    01:00 -21°C° 0 mm 2 mps 668 mmHg 84%
    02:00 -21°C° 0 mm 2 mps 668 mmHg 84%
    03:00 -23°C° 0 mm 2 mps 668 mmHg 84%
    04:00 -23°C° 0 mm 2 mps 669 mmHg 84%
    05:00 -23°C° 0 mm 2 mps 669 mmHg 84%
    06:00 -23°C° 0 mm 2 mps 669 mmHg 84%
    07:00 -23°C° 0 mm 2 mps 669 mmHg 84%
    08:00 -23°C° 0 mm 2 mps 669 mmHg 84%
    09:00 -21°C° 0 mm 2 mps 670 mmHg 83%
    10:00 -17°C° 0 mm 1 mps 670 mmHg 82%
    11:00 -16°C° 0 mm 1 mps 671 mmHg 82%
    12:00 -15°C° 0 mm 1 mps 671 mmHg 81%
    13:00 -14°C° 0 mm 1 mps 671 mmHg 81%
    14:00 -12°C° 0 mm 1 mps 671 mmHg 81%
    15:00 -14°C° 0 mm 1 mps 671 mmHg 82%
    16:00 -16°C° 0 mm 1 mps 671 mmHg 82%
    17:00 -17°C° 0 mm 1 mps 671 mmHg 83%
    18:00 -18°C° 0 mm 1 mps 671 mmHg 82%
    19:00 -18°C° 0 mm 1 mps 671 mmHg 81%
    20:00 -19°C° 0 mm 1 mps 671 mmHg 79%
    21:00 -19°C° 0 mm 1 mps 671 mmHg 77%
    22:00 -19°C° 0 mm 1 mps 671 mmHg 74%
    23:00 -19°C° 0 mm 1 mps 671 mmHg 71%

    25 January, Friday

    Time Temperature Precipitation Wind Pressure Humidity
    00:00 -19°C° 0 mm 1 mps 670 mmHg 68%
    01:00 -19°C° 0 mm 1 mps 670 mmHg 65%
    02:00 -19°C° 0 mm 1 mps 670 mmHg 63%
    03:00 -19°C° 0 mm 1 mps 670 mmHg 61%
    04:00 -19°C° 0 mm 1 mps 670 mmHg 59%
    05:00 -19°C° 0 mm 1 mps 669 mmHg 56%
    06:00 -19°C° 0 mm 1 mps 669 mmHg 55%
    07:00 -19°C° 0 mm 0 mps 669 mmHg 54%
    08:00 -19°C° 0 mm 0 mps 669 mmHg 52%
    09:00 -17°C° 0 mm 0 mps 669 mmHg 55%
    10:00 -15°C° 0 mm 0 mps 669 mmHg 57%
    11:00 -14°C° 0 mm 0 mps 669 mmHg 59%
    12:00 -13°C° 0 mm 1 mps 669 mmHg 62%
    13:00 -12°C° 0 mm 1 mps 668 mmHg 64%
    14:00 -11°C° 0 mm 1 mps 668 mmHg 67%
    15:00 -13°C° 0 mm 1 mps 667 mmHg 65%
    16:00 -15°C° 0 mm 1 mps 666 mmHg 64%
    17:00 -17°C° 0 mm 1 mps 666 mmHg 63%
    18:00 -18°C° 0 mm 1 mps 665 mmHg 62%
    19:00 -18°C° 0 mm 1 mps 665 mmHg 62%
    20:00 -19°C° 0 mm 1 mps 665 mmHg 61%
    21:00 -19°C° 0 mm 1 mps 665 mmHg 61%
    22:00 -19°C° 0 mm 1 mps 665 mmHg 61%
    23:00 -19°C° 0 mm 1 mps 664 mmHg 61%

    26 January, Saturday

    Time Temperature Precipitation Wind Pressure Humidity
    00:00 -19°C° 0 mm 1 mps 664 mmHg 61%
    01:00 -19°C° 0 mm 1 mps 664 mmHg 61%
    02:00 -19°C° 0 mm 1 mps 664 mmHg 61%
    03:00 -19°C° 0 mm 1 mps 663 mmHg 62%
    04:00 -23°C° 0 mm 2 mps 663 mmHg 64%
    05:00 -23°C° 0 mm 2 mps 663 mmHg 65%
    06:00 -23°C° 0 mm 2 mps 662 mmHg 66%
    07:00 -23°C° 0 mm 2 mps 662 mmHg 67%
    08:00 -23°C° 0 mm 2 mps 662 mmHg 69%
    09:00 -21°C° 0 mm 2 mps 662 mmHg 71%
    10:00 -17°C° 0 mm 1 mps 662 mmHg 72%
    11:00 -15°C° 0 mm 1 mps 663 mmHg 74%
    12:00 -14°C° 0 mm 1 mps 662 mmHg 74%
    13:00 -13°C° 0 mm 1 mps 662 mmHg 75%
    14:00 -12°C° 0 mm 1 mps 662 mmHg 75%
    15:00 -14°C° 0 mm 1 mps 661 mmHg 78%
    16:00 -18°C° 0 mm 2 mps 661 mmHg 81%
    17:00 -20°C° 0 mm 2 mps 660 mmHg 83%
    18:00 -20°C° 0 mm 2 mps 660 mmHg 83%
    19:00 -21°C° 0 mm 2 mps 660 mmHg 83%
    20:00 -21°C° 0 mm 2 mps 660 mmHg 83%
    21:00 -21°C° 0 mm 2 mps 660 mmHg 83%
    22:00 -21°C° 0 mm 2 mps 660 mmHg 83%
    23:00 -21°C° 0 mm 2 mps 660 mmHg 83%

    27 January, Sunday

    Time Temperature Precipitation Wind Pressure Humidity
    00:00 -20°C° 0 mm 2 mps 660 mmHg 84%
    01:00 -20°C° 0 mm 2 mps 660 mmHg 85%
    02:00 -20°C° 0 mm 2 mps 660 mmHg 86%
    03:00 -20°C° 0 mm 2 mps 660 mmHg 86%
    04:00 -20°C° 0 mm 2 mps 659 mmHg 87%
    05:00 -20°C° 0 mm 2 mps 659 mmHg 88%
    06:00 -20°C° 0 mm 2 mps 659 mmHg 88%
    07:00 -21°C° 0 mm 2 mps 660 mmHg 88%
    08:00 -21°C° 0 mm 2 mps 660 mmHg 89%
    09:00 -20°C° 0 mm 2 mps 660 mmHg 88%
    10:00 -19°C° 0 mm 2 mps 661 mmHg 87%
    11:00 -18°C° 0 mm 2 mps 661 mmHg 86%
    12:00 -18°C° 0 mm 2 mps 661 mmHg 82%
    13:00 -17°C° 0 mm 2 mps 661 mmHg 79%
    14:00 -18°C° 0 mm 3 mps 661 mmHg 76%
    15:00 -19°C° 0 mm 2 mps 660 mmHg 78%
    16:00 -21°C° 0 mm 2 mps 660 mmHg 80%
    17:00 -24°C° 0 mm 2 mps 660 mmHg 82%
    18:00 -25°C° 0 mm 2 mps 660 mmHg 82%
    19:00 -23°C° 0 mm 1 mps 659 mmHg 83%
    20:00 -24°C° 0 mm 1 mps 659 mmHg 83%
    21:00 -24°C° 0 mm 1 mps 659 mmHg 84%
    22:00 -25°C° 0 mm 1 mps 658 mmHg 84%
    23:00 -25°C° 0 mm 1 mps 657 mmHg 84%
    Show more